Anchorage Merrill, AK

4:44 AM AKDT on September 22, 2017 (GMT -0800)
Merrill

Weather History for PAMR - February, 2014

Change the Weather History Date:

Friday, February 7, 2014

  Actual Average Record
Temperature  
Mean Temperature 28 °F -  
Max Temperature 30 °F 25 °F 30 °F (2014)
Min Temperature 24 °F 13 °F -5 °F (2015)
Degree Days  
Heating Degree Days 38    
Moisture  
Dew Point 7 °F    
Average Humidity 43    
Maximum Humidity 51    
Minimum Humidity 37    
Precipitation  
Precipitation 0.00 in - - ()
Sea Level Pressure  
Sea Level Pressure 29.84 in    
Wind  
Wind Speed 15 mph (North)    
Max Wind Speed 22 mph    
Max Gust Speed 33 mph    
Visibility 10 miles    
Events      
Averages and records for this station are not official NWS values.
T = Trace of Precipitation, MM = Missing Value Source: NWS Daily Summary

Daily Weather History Graph

Daily Weather History Graph

Search for Another Location

Airport or City:

Trip Planner

Search our weather history database for the weather conditions in past years. The results will help you decide how hot, cold, wet, or windy it might be!

Date:

Astronomy

Feb. 07, 2014 Rise Set
Actual Time 9:03 AM AKST 5:24 PM AKST
Civil Twilight 8:15 AM AKST 6:12 PM AKST
Nautical Twilight 7:24 AM AKST 7:04 PM AKST
Astronomical Twilight 6:34 AM AKST 7:54 PM AKST
Moon 11:21 AM AKST (2/7) 3:48 AM AKST (2/7)
Length of Visible Light 9h 56m
Length of Day
8h 20m
First Quarter, 60% of the Moon is Illuminated
Feb 7
First Quarter
Feb 14
Full
Feb 22
Last Quarter
Feb 28
New
Mar 8
First Quarter

Hourly Weather History & Observations

Time (AKST) Temp. Windchill Dew Point Humidity Pressure Visibility Wind Dir Wind Speed Gust Speed Precip Events Conditions
12:53 AM 25.0 °F 11.7 °F 8.1 °F 49% 29.68 in 10.0 mi NNW 17.3 mph 27.6 mph N/A   Overcast
1:53 AM 25.0 °F 12.2 °F 7.0 °F 46% 29.68 in 10.0 mi North 16.1 mph 28.8 mph 0.00 in   Mostly Cloudy
3:53 AM 26.1 °F 13.1 °F 8.1 °F 47% 29.66 in 9.0 mi North 17.3 mph 28.8 mph 0.00 in   Mostly Cloudy
4:53 AM 27.0 °F 14.3 °F 7.0 °F 43% 29.67 in 10.0 mi North 17.3 mph 24.2 mph 0.00 in   Mostly Cloudy
5:53 AM 27.0 °F 14.7 °F 7.0 °F 43% 29.66 in 10.0 mi North 16.1 mph 29.9 mph N/A   Mostly Cloudy
6:53 AM 27.0 °F 15.6 °F 3.9 °F 37% 29.68 in 10.0 mi NNE 13.8 mph 25.3 mph N/A   Mostly Cloudy
7:53 AM 26.1 °F 13.6 °F 3.9 °F 39% 29.70 in 10.0 mi NNE 16.1 mph 28.8 mph N/A   Partly Cloudy
8:53 AM 26.1 °F 11.6 °F 3.9 °F 39% 29.70 in 8.0 mi NNE 21.9 mph 33.4 mph 0.00 in   Clear
9:53 AM 27.0 °F 18.0 °F 3.9 °F 37% 29.74 in 10.0 mi NNE 9.2 mph 24.2 mph 0.00 in   Mostly Cloudy
10:53 AM 27.0 °F 13.5 °F 5.0 °F 39% 29.76 in 10.0 mi NNE 19.6 mph 32.2 mph N/A   Mostly Cloudy
11:53 AM 28.0 °F 16.1 °F 5.0 °F 38% 29.79 in 10.0 mi NNE 16.1 mph 28.8 mph N/A   Mostly Cloudy
12:53 PM 28.9 °F 16.9 °F 6.1 °F 38% 29.81 in 10.0 mi NNE 17.3 mph 25.3 mph N/A   Scattered Clouds
1:53 PM 28.9 °F 16.9 °F 7.0 °F 40% 29.83 in 10.0 mi NNE 17.3 mph 26.5 mph N/A   Clear
2:53 PM 30.0 °F 17.5 °F 7.0 °F 38% 29.83 in 10.0 mi NNE 19.6 mph 25.3 mph N/A   Clear
3:53 PM 28.9 °F 19.8 °F 8.1 °F 41% 29.89 in 10.0 mi North 10.4 mph 18.4 mph N/A   Clear
4:53 PM 28.0 °F 17.5 °F 10.0 °F 47% 29.91 in 10.0 mi North 12.7 mph - N/A   Clear
5:53 PM 28.0 °F 18.6 °F 10.9 °F 49% 29.95 in 10.0 mi North 10.4 mph - N/A   Clear
6:53 PM 28.0 °F 17.0 °F 8.1 °F 43% 29.99 in 10.0 mi North 13.8 mph 23.0 mph N/A   Clear
7:53 PM 27.0 °F 17.3 °F 8.1 °F 45% 30.03 in 10.0 mi North 10.4 mph - N/A   Clear
8:53 PM 27.0 °F 18.0 °F 8.1 °F 45% 30.06 in 10.0 mi North 9.2 mph 17.3 mph N/A   Partly Cloudy
9:53 PM 26.1 °F 19.4 °F 8.1 °F 47% 30.09 in 10.0 mi North 5.8 mph - N/A   Overcast
10:53 PM 26.1 °F 21.9 °F 9.0 °F 49% 30.11 in 10.0 mi NNW 3.5 mph - N/A   Mostly Cloudy
11:53 PM 24.1 °F 15.2 °F 8.1 °F 51% 30.14 in 10.0 mi North 8.1 mph - N/A   Scattered Clouds